Location: *
(41.7492°S, 135.4150°W)
Time: 19:10:59
(UTC+00:00)

Cosmos 1763 Rocket - Pass Details

Date: 20 September 2021
Orbit: 733 x 779 km, 74.0° (Epoch: 16 October)

Event Time Altitude Azimuth Distance (km) Brightness Sun altitude
Rises 14:19:16 0° 201° (SSW) 3,275 6.6 -7.2°
Reaches altitude 10° 14:21:40 10° 202° (SSW) 2,347 5.9 -6.8°
Maximum altitude 14:27:01 80° 287° (WNW) 803 3.5 -5.8°
Drops below altitude 10° 14:32:20 10° 13° (NNE) 2,334 6.2 -4.8°
Sets 14:34:42 0° 14° (NNE) 3,255 6.9 -4.3°
